Find NetSat 1

NORAD ID: 46506 Int'l Des: 2020-068 Owner: ZFT Country: D operational
LEOCIRCULARRETROGRADE

当前视图

正在加载3D地球...

About NetSat 1

NetSat 1 (NORAD 46506) is a satellite launched Sep 28, 2020 by ZFT of D. It operates in LEO, CIRCULAR, RETROGRADE orbit with a mass of 4.00 kg.

关于 NetSat 1

正在加载描述...

即将过境

Passes for default location (London). Set your location on the main map for personalized predictions.

高度历史

Loading altitude history...

两行轨道根数

1 46506U 20068W 26160.50619311 .00011604 00000-0 34998-3 0 9996
2 46506 97.8747 160.7785 0005919 54.1491 306.0300 15.34460416314124
Epoch: Jun 9, 2026 • Age: 13 hours

当前状态

高度 472.8 km
速度 7.64 km/s
星下点 76.24°N, 100.48°E
发射日期 Sep 28, 2020
运行时间 5.6 years
类型 other

技术详情

分类 Payload
质量 4.00 kg
干质量 4.00 kg
总质量 4.00 kg
长度 0.30 m
直径 0.10 m
跨度 0.30 m
形状 Box
制造商 ZFT
平台类型 Cubesat 3U
阶段状态 In Orbit
所有者/国家 ZFT/D

Most Searched